| time (UTC) | temp F | wind direction | speed MPH | gust MPH | rain 1hr in | rain 24hr in | rain mn in | humidity % | barometer mb |
| 20260905175117 | 67 | 324 | 1.0 | 6.0 | 0.00 | 0.04 | 0.00 | 44 | 1022.3 |
| 20260905174610 | 67 | 313 | 2.0 | 8.0 | 0.00 | 0.04 | 0.00 | 43 | 1022.3 |
| 20260905174107 | 67 | 308 | 3.0 | 6.0 | 0.00 | 0.04 | 0.00 | 43 | 1022.3 |
| 20260905173611 | 68 | 303 | 2.0 | 6.0 | 0.00 | 0.04 | 0.00 | 42 | 1022.3 |
| 20260905173107 | 68 | 310 | 2.0 | 8.0 | 0.00 | 0.04 | 0.00 | 42 | 1022.3 |
| 20260905172607 | 68 | 313 | 1.0 | 8.0 | 0.00 | 0.04 | 0.00 | 41 | 1022.3 |
| 20260905172107 | 69 | 299 | 2.0 | 8.0 | 0.00 | 0.04 | 0.00 | 41 | 1021.9 |
| 20260905171607 | 69 | 317 | 3.0 | 10.0 | 0.00 | 0.04 | 0.00 | 41 | 1021.9 |
| 20260905171107 | 69 | 313 | 4.0 | 11.0 | 0.00 | 0.04 | 0.00 | 40 | 1021.9 |
| 20260905170607 | 69 | 315 | 4.0 | 11.0 | 0.00 | 0.04 | 0.00 | 40 | 1021.9 |
| 20260905170111 | 70 | 304 | 4.0 | 9.0 | 0.00 | 0.04 | 0.00 | 39 | 1021.9 |
| 20260905165607 | 70 | 312 | 4.0 | 9.0 | 0.00 | 0.04 | 0.00 | 40 | 1021.6 |
| 20260905165110 | 70 | 299 | 2.0 | 10.0 | 0.00 | 0.04 | 0.00 | 39 | 1021.6 |
| 20260905164610 | 71 | 302 | 5.0 | 10.0 | 0.00 | 0.04 | 0.00 | 37 | 1021.6 |
| 20260905164107 | 71 | 295 | 3.0 | 7.0 | 0.00 | 0.04 | 0.00 | 38 | 1021.6 |
| 20260905163614 | 71 | 279 | 2.0 | 8.0 | 0.00 | 0.04 | 0.00 | 38 | 1021.6 |
| 20260905163110 | 71 | 301 | 3.0 | 9.0 | 0.00 | 0.04 | 0.00 | 37 | 1021.6 |
| 20260905162607 | 71 | 311 | 4.0 | 9.0 | 0.00 | 0.04 | 0.00 | 37 | 1021.3 |
| 20260905162110 | 71 | 293 | 3.0 | 8.0 | 0.00 | 0.04 | 0.00 | 37 | 1021.3 |
| 20260905161610 | 71 | 304 | 3.0 | 13.0 | 0.00 | 0.04 | 0.00 | 37 | 1021.3 |
| 20260905161107 | 71 | 292 | 4.0 | 12.0 | 0.00 | 0.04 | 0.00 | 37 | 1021.3 |
| 20260905160607 | 71 | 296 | 5.0 | 14.0 | 0.00 | 0.04 | 0.00 | 37 | 1021.3 |
| 20260905160110 | 71 | 305 | 2.0 | 11.0 | 0.00 | 0.04 | 0.00 | 38 | 1020.9 |
| 20260905155607 | 71 | 269 | 3.0 | 11.0 | 0.00 | 0.04 | 0.00 | 38 | 1020.9 |
| 20260905155107 | 71 | 307 | 3.0 | 11.0 | 0.00 | 0.04 | 0.00 | 38 | 1020.9 |
| 20260905154610 | 71 | 300 | 4.0 | 13.0 | 0.00 | 0.04 | 0.00 | 38 | 1020.9 |
| 20260905154107 | 72 | 303 | 4.0 | 13.0 | 0.00 | 0.04 | 0.00 | 37 | 1020.9 |
| 20260905153607 | 72 | 296 | 6.0 | 13.0 | 0.00 | 0.04 | 0.00 | 37 | 1020.9 |
| 20260905153113 | 72 | 305 | 5.0 | 12.0 | 0.00 | 0.04 | 0.00 | 37 | 1020.9 |
| 20260905152608 | 73 | 297 | 3.0 | 12.0 | 0.00 | 0.04 | 0.00 | 36 | 1020.9 |
| 20260905152114 | 73 | 304 | 4.0 | 12.0 | 0.00 | 0.04 | 0.00 | 36 | 1020.9 |
| 20260905151611 | 73 | 304 | 5.0 | 14.0 | 0.00 | 0.04 | 0.00 | 36 | 1020.9 |
| 20260905151111 | 73 | 287 | 6.0 | 14.0 | 0.00 | 0.04 | 0.00 | 37 | 1020.5 |
| 20260905150609 | 73 | 276 | 4.0 | 12.0 | 0.00 | 0.04 | 0.00 | 36 | 1020.5 |
| 20260905150107 | 73 | 310 | 6.0 | 16.0 | 0.00 | 0.04 | 0.00 | 35 | 1020.5 |
| 20260905145608 | 73 | 288 | 6.0 | 16.0 | 0.00 | 0.04 | 0.00 | 35 | 1020.5 |
| 20260905145108 | 74 | 322 | 4.0 | 13.0 | 0.00 | 0.04 | 0.00 | 35 | 1020.5 |
| 20260905144617 | 73 | 265 | 8.0 | 13.0 | 0.00 | 0.04 | 0.00 | 35 | 1020.5 |
| 20260905144110 | 73 | 315 | 4.0 | 14.0 | 0.00 | 0.04 | 0.00 | 35 | 1020.5 |
| 20260905143609 | 73 | 284 | 4.0 | 11.0 | 0.00 | 0.04 | 0.00 | 36 | 1020.5 |
| 20260905143114 | 73 | 308 | 4.0 | 13.0 | 0.00 | 0.04 | 0.00 | 36 | 1020.5 |
| 20260905142608 | 74 | 288 | 5.0 | 13.0 | 0.00 | 0.04 | 0.00 | 36 | 1020.5 |
| 20260905142111 | 74 | 315 | 5.0 | 16.0 | 0.00 | 0.04 | 0.00 | 35 | 1020.5 |
| 20260905141611 | 74 | 299 | 5.0 | 12.0 | 0.00 | 0.04 | 0.00 | 35 | 1020.5 |
| 20260905141108 | 75 | 302 | 4.0 | 11.0 | 0.00 | 0.04 | 0.00 | 35 | 1020.5 |
| 20260905140607 | 75 | 266 | 3.0 | 15.0 | 0.00 | 0.04 | 0.00 | 34 | 1020.5 |
| 20260905140109 | 74 | 293 | 4.0 | 15.0 | 0.00 | 0.04 | 0.00 | 34 | 1020.2 |
| 20260905135614 | 74 | 256 | 5.0 | 15.0 | 0.00 | 0.04 | 0.00 | 34 | 1020.5 |
| 20260905135107 | 74 | 256 | 3.0 | 12.0 | 0.00 | 0.04 | 0.00 | 34 | 1020.5 |
| 20260905134608 | 75 | 237 | 5.0 | 17.0 | 0.00 | 0.04 | 0.00 | 33 | 1020.2 |
| 20260905134108 | 74 | 283 | 5.0 | 12.0 | 0.00 | 0.04 | 0.00 | 36 | 1020.2 |
| 20260905133614 | 74 | 262 | 4.0 | 13.0 | 0.00 | 0.04 | 0.00 | 37 | 1020.2 |
| 20260905133111 | 73 | 257 | 2.0 | 13.0 | 0.00 | 0.04 | 0.00 | 38 | 1020.2 |
| 20260905132608 | 74 | 308 | 4.0 | 13.0 | 0.00 | 0.04 | 0.00 | 36 | 1020.2 |
| 20260905132114 | 75 | 248 | 1.0 | 12.0 | 0.00 | 0.04 | 0.00 | 39 | 1020.2 |
| 20260905131607 | 73 | 257 | 3.0 | 10.0 | 0.00 | 0.04 | 0.00 | 40 | 1020.2 |
| 20260905131107 | 73 | 273 | 4.0 | 15.0 | 0.00 | 0.04 | 0.00 | 39 | 1020.2 |
| 20260905130610 | 74 | 261 | 1.0 | 9.0 | 0.00 | 0.04 | 0.00 | 39 | 1020.2 |
| 20260905130110 | 74 | 267 | 3.0 | 11.0 | 0.00 | 0.04 | 0.00 | 39 | 1020.2 |
| 20260905125611 | 74 | 276 | 3.0 | 12.0 | 0.00 | 0.04 | 0.00 | 39 | 1020.2 |
| 20260905125107 | 73 | 302 | 4.0 | 13.0 | 0.00 | 0.04 | 0.00 | 39 | 1020.2 |
| 20260905124608 | 74 | 296 | 4.0 | 12.0 | 0.00 | 0.04 | 0.00 | 39 | 1019.8 |
| 20260905124110 | 75 | 285 | 4.0 | 11.0 | 0.00 | 0.04 | 0.00 | 38 | 1019.8 |
| 20260905123610 | 76 | 226 | 3.0 | 11.0 | 0.00 | 0.04 | 0.00 | 39 | 1019.8 |
| 20260905123107 | 74 | 298 | 4.0 | 9.0 | 0.00 | 0.04 | 0.00 | 40 | 1019.8 |
| 20260905122610 | 73 | 251 | 1.0 | 16.0 | 0.00 | 0.04 | 0.00 | 40 | 1019.8 |
| 20260905122113 | 74 | 247 | 6.0 | 11.0 | 0.00 | 0.04 | 0.00 | 39 | 1019.8 |
| 20260905121610 | 73 | 274 | 2.0 | 10.0 | 0.00 | 0.04 | 0.00 | 41 | 1020.2 |
| 20260905121110 | 73 | 295 | 4.0 | 13.0 | 0.00 | 0.04 | 0.00 | 41 | 1020.2 |
| 20260905120613 | 73 | 302 | 5.0 | 13.0 | 0.00 | 0.04 | 0.00 | 42 | 1019.8 |
| 20260905120107 | 73 | 247 | 4.0 | 16.0 | 0.00 | 0.04 | 0.00 | 41 | 1019.8 |
| 20260905115611 | 73 | 257 | 8.0 | 15.0 | 0.00 | 0.04 | 0.00 | 41 | 1019.8 |
| 20260905115111 | 73 | 289 | 6.0 | 17.0 | 0.00 | 0.04 | 0.00 | 41 | 1019.8 |
| 20260905114608 | 73 | 284 | 3.0 | 11.0 | 0.00 | 0.04 | 0.00 | 42 | 1020.2 |
| 20260905114107 | 73 | 235 | 4.0 | 14.0 | 0.00 | 0.04 | 0.00 | 42 | 1020.2 |
| 20260905113613 | 73 | 237 | 5.0 | 14.0 | 0.00 | 0.04 | 0.00 | 41 | 1020.2 |
| 20260905113110 | 73 | 242 | 2.0 | 14.0 | 0.00 | 0.04 | 0.00 | 43 | 1020.2 |
| 20260905112607 | 73 | 250 | 4.0 | 12.0 | 0.00 | 0.04 | 0.00 | 42 | 1020.2 |
| 20260905112107 | 73 | 257 | 3.0 | 11.0 | 0.00 | 0.04 | 0.00 | 44 | 1020.2 |
| 20260905111607 | 73 | 257 | 6.0 | 12.0 | 0.00 | 0.04 | 0.00 | 43 | 1020.2 |
| 20260905111113 | 72 | 230 | 2.0 | 14.0 | 0.00 | 0.04 | 0.00 | 46 | 1020.2 |
| 20260905110607 | 71 | 278 | 3.0 | 12.0 | 0.00 | 0.04 | 0.00 | 46 | 1020.2 |
| 20260905110107 | 71 | 290 | 4.0 | 14.0 | 0.00 | 0.04 | 0.00 | 47 | 1020.5 |
| 20260905105607 | 71 | 279 | 5.0 | 15.0 | 0.00 | 0.04 | 0.00 | 46 | 1020.2 |
| 20260905105111 | 72 | 292 | 3.0 | 9.0 | 0.00 | 0.04 | 0.00 | 46 | 1020.5 |
| 20260905104610 | 71 | 269 | 2.0 | 10.0 | 0.00 | 0.04 | 0.00 | 47 | 1020.5 |
| 20260905104108 | 70 | 262 | 5.0 | 12.0 | 0.00 | 0.04 | 0.00 | 48 | 1020.5 |
| 20260905103607 | 70 | 301 | 5.0 | 11.0 | 0.00 | 0.04 | 0.00 | 48 | 1020.5 |
| 20260905103107 | 70 | 262 | 3.0 | 13.0 | 0.00 | 0.04 | 0.00 | 49 | 1020.5 |
| 20260905102610 | 70 | 290 | 4.0 | 13.0 | 0.00 | 0.04 | 0.00 | 50 | 1020.5 |
| 20260905102108 | 70 | 295 | 3.0 | 9.0 | 0.00 | 0.04 | 0.00 | 50 | 1020.5 |
| 20260905101607 | 69 | 300 | 2.0 | 11.0 | 0.00 | 0.04 | 0.00 | 53 | 1020.5 |
| 20260905101107 | 68 | 291 | 5.0 | 10.0 | 0.00 | 0.04 | 0.00 | 52 | 1020.5 |
| 20260905100608 | 69 | 262 | 4.0 | 10.0 | 0.00 | 0.04 | 0.00 | 51 | 1020.5 |
| 20260905100114 | 69 | 244 | 3.0 | 13.0 | 0.00 | 0.04 | 0.00 | 51 | 1020.5 |
| 20260905095611 | 69 | 233 | 3.0 | 11.0 | 0.00 | 0.04 | 0.00 | 53 | 1020.5 |
| 20260905095107 | 68 | 256 | 4.0 | 15.0 | 0.00 | 0.04 | 0.00 | 54 | 1020.5 |
| 20260905094607 | 69 | 252 | 5.0 | 13.0 | 0.00 | 0.04 | 0.00 | 52 | 1020.5 |
| 20260905094107 | 68 | 247 | 2.0 | 13.0 | 0.00 | 0.04 | 0.00 | 55 | 1020.5 |
| 20260905093614 | 68 | 242 | 5.0 | 16.0 | 0.00 | 0.04 | 0.00 | 54 | 1020.5 |
| 20260905093110 | 68 | 261 | 4.0 | 11.0 | 0.00 | 0.04 | 0.00 | 54 | 1020.5 |
| 20260905092613 | 68 | 235 | 3.0 | 10.0 | 0.00 | 0.04 | 0.00 | 57 | 1020.5 |
| 20260905092107 | 67 | 252 | 2.0 | 11.0 | 0.00 | 0.04 | 0.00 | 57 | 1020.5 |
| 20260905091613 | 67 | 293 | 5.0 | 11.0 | 0.00 | 0.04 | 0.00 | 55 | 1020.5 |
| 20260905091108 | 68 | 270 | 2.0 | 8.0 | 0.00 | 0.04 | 0.00 | 56 | 1020.5 |
| 20260905090608 | 67 | 250 | 3.0 | 10.0 | 0.00 | 0.04 | 0.00 | 58 | 1020.5 |
| 20260905090107 | 67 | 269 | 2.0 | 10.0 | 0.00 | 0.04 | 0.00 | 58 | 1020.5 |
| 20260905085607 | 66 | 287 | 3.0 | 12.0 | 0.00 | 0.04 | 0.00 | 58 | 1020.5 |
| 20260905085114 | 66 | 297 | 2.0 | 9.0 | 0.00 | 0.04 | 0.00 | 59 | 1020.5 |
| 20260905084608 | 66 | 261 | 3.0 | 15.0 | 0.00 | 0.04 | 0.00 | 59 | 1020.5 |
| 20260905084116 | 66 | 236 | 4.0 | 11.0 | 0.00 | 0.04 | 0.00 | 58 | 1020.5 |
| 20260905083610 | 66 | 277 | 1.0 | 9.0 | 0.00 | 0.04 | 0.00 | 60 | 1020.5 |
| 20260905083114 | 66 | 248 | 4.0 | 9.0 | 0.00 | 0.04 | 0.00 | 60 | 1020.2 |
| 20260905082608 | 65 | 258 | 2.0 | 11.0 | 0.00 | 0.04 | 0.00 | 61 | 1020.2 |
| 20260905082107 | 66 | 236 | 2.0 | 9.0 | 0.00 | 0.04 | 0.00 | 61 | 1020.2 |
| 20260905081608 | 66 | 243 | 2.0 | 9.0 | 0.00 | 0.04 | 0.00 | 62 | 1020.2 |
| 20260905081110 | 66 | 250 | 2.0 | 7.0 | 0.00 | 0.04 | 0.00 | 63 | 1020.2 |
| 20260905080610 | 65 | 274 | 2.0 | 11.0 | 0.00 | 0.04 | 0.00 | 64 | 1020.2 |
| 20260905080107 | 65 | 281 | 5.0 | 11.0 | 0.00 | 0.04 | 0.00 | 65 | 1020.2 |
| 20260905075614 | 65 | 268 | 2.0 | 11.0 | 0.00 | 0.04 | 0.00 | 67 | 1020.2 |
| 20260905075107 | 64 | 252 | 5.0 | 9.0 | 0.00 | 0.04 | 0.00 | 68 | 1020.2 |
| 20260905074610 | 64 | 234 | 1.0 | 9.0 | 0.00 | 0.04 | 0.00 | 70 | 1020.2 |
| 20260905074108 | 64 | 227 | 2.0 | 10.0 | 0.00 | 0.04 | 0.00 | 70 | 1019.8 |
| 20260905073610 | 63 | 235 | 1.0 | 8.0 | 0.00 | 0.04 | 0.00 | 72 | 1019.8 |
| 20260905073108 | 63 | 242 | 3.0 | 10.0 | 0.00 | 0.04 | 0.00 | 71 | 1019.8 |
| 20260905072607 | 63 | 281 | 4.0 | 13.0 | 0.00 | 0.04 | 0.00 | 72 | 1019.8 |
| 20260905072107 | 62 | 253 | 2.0 | 8.0 | 0.00 | 0.04 | 0.00 | 73 | 1019.8 |
| 20260905071610 | 62 | 266 | 4.0 | 8.0 | 0.00 | 0.04 | 0.00 | 74 | 1019.8 |
| 20260905071107 | 62 | 231 | 1.0 | 7.0 | 0.00 | 0.04 | 0.00 | 75 | 1019.8 |
| 20260905070607 | 61 | 251 | 4.0 | 11.0 | 0.00 | 0.04 | 0.00 | 75 | 1019.8 |
| 20260905070111 | 61 | 263 | 3.0 | 9.0 | 0.00 | 0.04 | 0.00 | 75 | 1019.8 |
| 20260905065610 | 61 | 293 | 3.0 | 8.0 | 0.00 | 0.04 | 0.00 | 76 | 1019.5 |
| 20260905065107 | 61 | 272 | 1.0 | 9.0 | 0.00 | 0.04 | 0.00 | 76 | 1019.5 |
| 20260905064610 | 61 | 321 | 0.0 | 4.0 | 0.00 | 0.04 | 0.00 | 77 | 1019.5 |
| 20260905064107 | 61 | 241 | 2.0 | 4.0 | 0.00 | 0.04 | 0.00 | 78 | 1019.5 |
| 20260905063607 | 60 | 244 | 1.0 | 4.0 | 0.00 | 0.04 | 0.00 | 79 | 1019.5 |
| 20260905063110 | 60 | 265 | 2.0 | 4.0 | 0.00 | 0.04 | 0.00 | 79 | 1019.5 |
| 20260905062607 | 60 | 241 | 0.0 | 1.0 | 0.00 | 0.04 | 0.00 | 80 | 1019.5 |
| 20260905062114 | 60 | 202 | 0.0 | 2.0 | 0.00 | 0.04 | 0.00 | 81 | 1019.5 |
| 20260905061613 | 60 | 293 | 0.0 | 5.0 | 0.00 | 0.04 | 0.00 | 81 | 1019.2 |
| 20260905061107 | 59 | 276 | 3.0 | 5.0 | 0.00 | 0.04 | 0.00 | 81 | 1019.5 |
| 20260905060607 | 59 | 196 | 1.0 | 4.0 | 0.00 | 0.04 | 0.00 | 81 | 1019.2 |
| 20260905060107 | 59 | 164 | 1.0 | 4.0 | 0.00 | 0.04 | 0.00 | 82 | 1019.2 |
| 20260905055607 | 59 | 186 | 2.0 | 4.0 | 0.00 | 0.04 | 0.00 | 82 | 1019.2 |
| 20260905055110 | 59 | 215 | 1.0 | 3.0 | 0.00 | 0.04 | 0.00 | 82 | 1019.2 |
| 20260905054610 | 58 | 160 | 1.0 | 3.0 | 0.00 | 0.04 | 0.00 | 82 | 1019.2 |
| 20260905054109 | 58 | 283 | 0.0 | 1.0 | 0.00 | 0.04 | 0.00 | 82 | 1019.2 |
| 20260905053607 | 58 | 331 | 0.0 | 1.0 | 0.00 | 0.04 | 0.00 | 82 | 1019.2 |
| 20260905053113 | 58 | 323 | 0.0 | 2.0 | 0.00 | 0.04 | 0.00 | 81 | 1018.8 |
| 20260905052607 | 58 | 305 | 0.0 | 2.0 | 0.00 | 0.04 | 0.00 | 82 | 1018.8 |
| 20260905052110 | 57 | 64 | 0.0 | 2.0 | 0.00 | 0.04 | 0.00 | 82 | 1018.8 |
| 20260905051613 | 57 | 122 | 0.0 | 2.0 | 0.00 | 0.04 | 0.00 | 82 | 1018.8 |
| 20260905051110 | 57 | 327 | 1.0 | 2.0 | 0.00 | 0.04 | 0.00 | 82 | 1018.8 |
| 20260905050607 | 57 | 311 | 1.0 | 4.0 | 0.00 | 0.04 | 0.00 | 82 | 1018.8 |
| 20260905050107 | 57 | 49 | 1.0 | 3.0 | 0.00 | 0.04 | 0.00 | 82 | 1018.4 |
| 20260905045607 | 57 | 348 | 1.0 | 3.0 | 0.00 | 0.04 | 0.00 | 83 | 1018.4 |
| 20260905045107 | 57 | 84 | 1.0 | 3.0 | 0.00 | 0.04 | 0.00 | 83 | 1018.4 |
| 20260905044614 | 57 | 84 | 1.0 | 4.0 | 0.00 | 0.04 | 0.00 | 83 | 1018.4 |
| 20260905044110 | 57 | 76 | 2.0 | 3.0 | 0.00 | 0.04 | 0.00 | 82 | 1018.1 |
| 20260905043607 | 57 | 188 | 0.0 | 1.0 | 0.00 | 0.04 | 0.00 | 82 | 1018.1 |
| 20260905043107 | 57 | 93 | 0.0 | 1.0 | 0.00 | 0.04 | 0.00 | 82 | 1018.1 |
| 20260905042611 | 57 | 65 | 0.0 | 3.0 | 0.00 | 0.04 | 0.00 | 81 | 1018.1 |
| 20260905042107 | 57 | 35 | 1.0 | 3.0 | 0.00 | 0.04 | 0.00 | 79 | 1018.1 |
| 20260905041608 | 57 | 292 | 0.0 | 3.0 | 0.00 | 0.04 | 0.00 | 78 | 1017.7 |
| 20260905041111 | 57 | 182 | 1.0 | 3.0 | 0.00 | 0.04 | 0.00 | 78 | 1017.7 |
| 20260905040607 | 57 | 192 | 1.0 | 2.0 | 0.00 | 0.04 | 0.00 | 78 | 1017.7 |
| 20260905040107 | 57 | 185 | 1.0 | 1.0 | 0.00 | 0.04 | 0.00 | 77 | 1017.7 |
| 20260905035612 | 57 | 188 | 0.0 | 2.0 | 0.00 | 0.04 | 0.00 | 77 | 1017.7 |
| 20260905035107 | 57 | 157 | 1.0 | 2.0 | 0.00 | 0.04 | 0.00 | 77 | 1017.7 |
| 20260905034608 | 57 | 288 | 0.0 | 2.0 | 0.00 | 0.04 | 0.00 | 78 | 1017.7 |
| 20260905034107 | 57 | 181 | 1.0 | 2.0 | 0.00 | 0.04 | 0.00 | 77 | 1017.7 |
| 20260905033611 | 57 | 342 | 0.0 | 1.0 | 0.00 | 0.04 | 0.00 | 78 | 1017.7 |
| 20260905033110 | 57 | 266 | 0.0 | 2.0 | 0.00 | 0.04 | 0.00 | 78 | 1017.7 |
| 20260905032613 | 57 | 191 | 0.0 | 4.0 | 0.00 | 0.04 | 0.00 | 78 | 1017.4 |
| 20260905032116 | 57 | 162 | 1.0 | 4.0 | 0.00 | 0.04 | 0.00 | 78 | 1017.7 |
| 20260905031608 | 57 | 184 | 1.0 | 3.0 | 0.00 | 0.04 | 0.00 | 78 | 1017.7 |
| 20260905031107 | 57 | 177 | 2.0 | 3.0 | 0.00 | 0.04 | 0.00 | 78 | 1017.7 |
| 20260905030607 | 57 | 233 | 0.0 | 2.0 | 0.00 | 0.04 | 0.00 | 77 | 1017.7 |
| 20260905030110 | 57 | 275 | 0.0 | 4.0 | 0.00 | 0.04 | 0.00 | 76 | 1017.7 |
| 20260905025610 | 58 | 335 | 1.0 | 4.0 | 0.01 | 0.04 | 0.00 | 75 | 1017.7 |
| 20260905025110 | 58 | 182 | 1.0 | 4.0 | 0.02 | 0.04 | 0.00 | 75 | 1017.4 |
| 20260905024610 | 58 | 130 | 1.0 | 2.0 | 0.03 | 0.04 | 0.00 | 76 | 1017.1 |
| 20260905024114 | 58 | 345 | 0.0 | 3.0 | 0.03 | 0.04 | 0.00 | 77 | 1017.4 |
| 20260905023610 | 58 | 171 | 1.0 | 2.0 | 0.03 | 0.04 | 0.00 | 77 | 1017.1 |
| 20260905023107 | 58 | 197 | 0.0 | 3.0 | 0.03 | 0.04 | 0.00 | 77 | 1017.4 |
| 20260905022610 | 58 | 163 | 1.0 | 2.0 | 0.03 | 0.04 | 0.00 | 76 | 1017.4 |
| 20260905022107 | 58 | 185 | 1.0 | 3.0 | 0.03 | 0.04 | 0.00 | 75 | 1017.4 |
| 20260905021610 | 58 | 296 | 0.0 | 5.0 | 0.03 | 0.04 | 0.00 | 73 | 1017.4 |
| 20260905021107 | 58 | 260 | 3.0 | 5.0 | 0.03 | 0.04 | 0.00 | 70 | 1017.7 |
| 20260905020609 | 59 | 220 | 1.0 | 3.0 | 0.03 | 0.04 | 0.00 | 72 | 1017.4 |
| 20260905020107 | 60 | 312 | 1.0 | 3.0 | 0.03 | 0.04 | 0.00 | 70 | 1017.4 |
| 20260905015610 | 60 | 255 | 0.0 | 8.0 | 0.02 | 0.03 | 0.00 | 67 | 1017.4 |
| 20260905015113 | 61 | 312 | 3.0 | 8.0 | 0.00 | 0.01 | 0.00 | 64 | 1017.4 |
| 20260905014610 | 62 | 281 | 2.0 | 5.0 | 0.00 | 0.01 | 0.00 | 64 | 1017.1 |
| 20260905014107 | 62 | 303 | 0.0 | 2.0 | 0.00 | 0.01 | 0.00 | 61 | 1017.1 |
| 20260905013608 | 62 | 300 | 1.0 | 4.0 | 0.00 | 0.00 | 0.00 | 58 | 1017.4 |
| 20260905013111 | 62 | 304 | 0.0 | 3.0 | 0.00 | 0.00 | 0.00 | 58 | 1017.1 |
| 20260905012608 | 62 | 291 | 1.0 | 4.0 | 0.00 | 0.00 | 0.00 | 57 | 1017.4 |
| 20260905012113 | 62 | 295 | 2.0 | 4.0 | 0.00 | 0.00 | 0.00 | 58 | 1017.1 |
| 20260905011607 | 62 | 163 | 1.0 | 3.0 | 0.00 | 0.00 | 0.00 | 61 | 1016.7 |
| 20260905011110 | 62 | 268 | 1.0 | 3.0 | 0.00 | 0.00 | 0.00 | 58 | 1016.7 |
| 20260905010610 | 62 | 267 | 1.0 | 2.0 | 0.00 | 0.00 | 0.00 | 59 | 1016.3 |
| 20260905010107 | 62 | 284 | 1.0 | 3.0 | 0.00 | 0.00 | 0.00 | 61 | 1016.7 |
| 20260905005608 | 62 | 282 | 1.0 | 3.0 | 0.00 | 0.00 | 0.00 | 62 | 1016.3 |
| 20260905005110 | 62 | 242 | 1.0 | 3.0 | 0.00 | 0.00 | 0.00 | 62 | 1016.3 |
| 20260905004613 | 62 | 292 | 0.0 | 3.0 | 0.00 | 0.00 | 0.00 | 63 | 1016.3 |
| 20260905004108 | 62 | 273 | 0.0 | 2.0 | 0.00 | 0.00 | 0.00 | 64 | 1016.3 |
| 20260905003608 | 62 | 253 | 0.0 | 7.0 | 0.00 | 0.00 | 0.00 | 63 | 1016.0 |
| 20260905003113 | 62 | 257 | 1.0 | 2.0 | 0.00 | 0.00 | 0.00 | 64 | 1016.0 |
| 20260905002607 | 62 | 203 | 0.0 | 2.0 | 0.00 | 0.00 | 0.00 | 66 | 1016.0 |
| 20260905002116 | 62 | 159 | 0.0 | 2.0 | 0.00 | 0.00 | 0.00 | 66 | 1016.0 |
| 20260905001607 | 62 | 274 | 0.0 | 2.0 | 0.00 | 0.00 | 0.00 | 64 | 1016.0 |
| 20260905001113 | 62 | 263 | 0.0 | 3.0 | 0.00 | 0.00 | 0.00 | 64 | 1016.0 |
| 20260905000607 | 62 | 234 | 1.0 | 3.0 | 0.00 | 0.00 | 0.00 | 62 | 1016.0 |
| 20260905000107 | 62 | 175 | 1.0 | 5.0 | 0.00 | 0.00 | 0.00 | 64 | 1016.0 |
| 20260904235607 | 62 | 281 | 2.0 | 7.0 | 0.00 | 0.00 | 0.00 | 59 | 1016.0 |
| 20260904235113 | 63 | 294 | 2.0 | 7.0 | 0.00 | 0.00 | 0.00 | 59 | 1015.6 |
| 20260904234610 | 64 | 319 | 2.0 | 6.0 | 0.00 | 0.00 | 0.00 | 58 | 1016.0 |
| 20260904234107 | 65 | 326 | 1.0 | 6.0 | 0.00 | 0.00 | 0.00 | 55 | 1015.6 |
| 20260904233607 | 65 | 317 | 2.0 | 9.0 | 0.00 | 0.00 | 0.00 | 54 | 1015.6 |
| 20260904233110 | 66 | 316 | 4.0 | 11.0 | 0.00 | 0.00 | 0.00 | 48 | 1016.0 |
| 20260904232610 | 66 | 305 | 6.0 | 11.0 | 0.00 | 0.00 | 0.00 | 46 | 1015.6 |
| 20260904232107 | 66 | 312 | 6.0 | 12.0 | 0.00 | 0.00 | 0.00 | 50 | 1015.6 |
| 20260904231607 | 66 | 310 | 6.0 | 12.0 | 0.00 | 0.00 | 0.00 | 55 | 1015.6 |
| 20260904231107 | 66 | 319 | 4.0 | 13.0 | 0.00 | 0.00 | 0.00 | 61 | 1015.6 |
| 20260904230611 | 66 | 299 | 3.0 | 10.0 | 0.00 | 0.00 | 0.00 | 64 | 1015.6 |
| 20260904230113 | 66 | 294 | 1.0 | 11.0 | 0.00 | 0.00 | 0.00 | 64 | 1015.6 |
| 20260904225607 | 67 | 306 | 6.0 | 15.0 | 0.00 | 0.00 | 0.00 | 63 | 1015.6 |
| 20260904225108 | 67 | 309 | 3.0 | 12.0 | 0.00 | 0.00 | 0.00 | 62 | 1015.3 |
| 20260904224607 | 67 | 314 | 5.0 | 17.0 | 0.00 | 0.00 | 0.00 | 62 | 1015.6 |
| 20260904224107 | 67 | 311 | 6.0 | 16.0 | 0.00 | 0.00 | 0.00 | 62 | 1015.6 |
| 20260904223607 | 68 | 298 | 6.0 | 17.0 | 0.00 | 0.00 | 0.00 | 62 | 1015.3 |
| 20260904223107 | 68 | 308 | 4.0 | 11.0 | 0.00 | 0.00 | 0.00 | 63 | 1015.6 |
| 20260904222610 | 68 | 294 | 2.0 | 11.0 | 0.00 | 0.00 | 0.00 | 65 | 1015.6 |
| 20260904222110 | 69 | 305 | 3.0 | 14.0 | 0.00 | 0.00 | 0.00 | 65 | 1015.3 |
| 20260904221607 | 69 | 317 | 5.0 | 16.0 | 0.00 | 0.00 | 0.00 | 64 | 1015.0 |
| 20260904221116 | 70 | 311 | 6.0 | 16.0 | 0.00 | 0.00 | 0.00 | 63 | 1015.0 |
| 20260904220613 | 70 | 283 | 5.0 | 21.0 | 0.00 | 0.00 | 0.00 | 62 | 1014.6 |
| 20260904220110 | 70 | 300 | 8.0 | 23.0 | 0.00 | 0.00 | 0.00 | 61 | 1014.2 |
| 20260904215607 | 71 | 310 | 10.0 | 22.0 | 0.00 | 0.00 | 0.00 | 60 | 1014.2 |
| 20260904215114 | 73 | 320 | 6.0 | 24.0 | 0.00 | 0.00 | 0.00 | 57 | 1013.9 |
| 20260904214607 | 76 | 317 | 8.0 | 16.0 | 0.00 | 0.00 | 0.00 | 51 | 1013.9 |
| 20260904214107 | 76 | 276 | 3.0 | 16.0 | 0.00 | 0.00 | 0.00 | 50 | 1012.9 |
| 20260904213613 | 76 | 274 | 3.0 | 16.0 | 0.00 | 0.00 | 0.00 | 50 | 1012.9 |
| 20260904213110 | 76 | 285 | 6.0 | 14.0 | 0.00 | 0.00 | 0.00 | 50 | 1012.9 |
| 20260904212608 | 76 | 239 | 2.0 | 9.0 | 0.00 | 0.00 | 0.00 | 50 | 1012.5 |
| 20260904212110 | 77 | 257 | 2.0 | 14.0 | 0.00 | 0.00 | 0.00 | 50 | 1012.9 |
| 20260904211607 | 76 | 267 | 6.0 | 14.0 | 0.00 | 0.00 | 0.00 | 50 | 1012.9 |
| 20260904211107 | 76 | 279 | 4.0 | 7.0 | 0.00 | 0.00 | 0.00 | 50 | 1012.5 |
| 20260904210607 | 76 | 282 | 3.0 | 11.0 | 0.00 | 0.00 | 0.00 | 50 | 1012.5 |
| 20260904210110 | 76 | 262 | 2.0 | 6.0 | 0.00 | 0.00 | 0.00 | 50 | 1012.5 |
| 20260904205607 | 76 | 260 | 2.0 | 5.0 | 0.00 | 0.00 | 0.00 | 50 | 1012.5 |
| 20260904205107 | 76 | 264 | 1.0 | 6.0 | 0.00 | 0.00 | 0.00 | 50 | 1012.5 |
| 20260904204607 | 76 | 278 | 2.0 | 7.0 | 0.00 | 0.00 | 0.00 | 50 | 1012.5 |
| 20260904204107 | 76 | 257 | 2.0 | 7.0 | 0.00 | 0.00 | 0.00 | 50 | 1012.5 |
| 20260904203613 | 76 | 258 | 2.0 | 8.0 | 0.00 | 0.00 | 0.00 | 50 | 1012.1 |
| 20260904203107 | 76 | 247 | 2.0 | 8.0 | 0.00 | 0.00 | 0.00 | 50 | 1012.1 |
| 20260904202607 | 76 | 265 | 3.0 | 8.0 | 0.00 | 0.00 | 0.00 | 51 | 1012.1 |
| 20260904202107 | 75 | 262 | 2.0 | 5.0 | 0.00 | 0.00 | 0.00 | 51 | 1012.1 |
| 20260904201610 | 75 | 258 | 1.0 | 7.0 | 0.00 | 0.00 | 0.00 | 52 | 1012.1 |
| 20260904201110 | 75 | 271 | 1.0 | 5.0 | 0.00 | 0.00 | 0.00 | 52 | 1012.1 |
| 20260904200610 | 75 | 251 | 1.0 | 6.0 | 0.00 | 0.00 | 0.00 | 53 | 1012.1 |
| 20260904200110 | 75 | 260 | 0.0 | 3.0 | 0.00 | 0.00 | 0.00 | 53 | 1012.1 |
| 20260904195610 | 75 | 222 | 1.0 | 4.0 | 0.00 | 0.00 | 0.00 | 53 | 1012.1 |
| 20260904195107 | 75 | 224 | 0.0 | 4.0 | 0.00 | 0.00 | 0.00 | 53 | 1012.1 |
| 20260904194607 | 75 | 242 | 2.0 | 4.0 | 0.00 | 0.00 | 0.00 | 54 | 1012.1 |
| 20260904194107 | 75 | 245 | 1.0 | 3.0 | 0.00 | 0.00 | 0.00 | 54 | 1012.1 |
| 20260904193607 | 75 | 252 | 0.0 | 3.0 | 0.00 | 0.00 | 0.00 | 55 | 1012.1 |
| 20260904193110 | 75 | 267 | 0.0 | 1.0 | 0.00 | 0.00 | 0.00 | 55 | 1012.1 |
| 20260904192610 | 75 | 167 | 0.0 | 2.0 | 0.00 | 0.00 | 0.00 | 54 | 1012.1 |
| 20260904192107 | 75 | 166 | 1.0 | 3.0 | 0.00 | 0.00 | 0.00 | 54 | 1011.8 |
| 20260904191608 | 75 | 127 | 0.0 | 1.0 | 0.00 | 0.00 | 0.00 | 53 | 1011.8 |
| 20260904191113 | 76 | 112 | 1.0 | 1.0 | 0.00 | 0.00 | 0.00 | 53 | 1011.8 |
| 20260904190607 | 76 | 203 | 0.0 | 3.0 | 0.00 | 0.00 | 0.00 | 53 | 1011.8 |
| 20260904190111 | 76 | 156 | 2.0 | 3.0 | 0.00 | 0.00 | 0.00 | 52 | 1011.8 |
| 20260904185610 | 76 | 175 | 0.0 | 1.0 | 0.00 | 0.00 | 0.00 | 52 | 1011.8 |
| 20260904185108 | 76 | 92 | 0.0 | 1.0 | 0.00 | 0.00 | 0.00 | 52 | 1011.8 |
| 20260904184610 | 76 | 356 | 0.0 | 1.0 | 0.00 | 0.00 | 0.00 | 52 | 1011.8 |
| 20260904184116 | 77 | 150 | 0.0 | 2.0 | 0.00 | 0.00 | 0.00 | 51 | 1011.8 |
| 20260904183607 | 77 | 138 | 0.0 | 1.0 | 0.00 | 0.00 | 0.00 | 51 | 1011.8 |
| 20260904183107 | 77 | 192 | 0.0 | 1.0 | 0.00 | 0.00 | 0.00 | 50 | 1011.8 |
| 20260904182607 | 77 | 227 | 0.0 | 1.0 | 0.00 | 0.00 | 0.00 | 50 | 1011.8 |
| 20260904182107 | 78 | 259 | 0.0 | 1.0 | 0.00 | 0.00 | 0.00 | 50 | 1011.4 |
| 20260904181610 | 78 | 218 | 0.0 | 2.0 | 0.00 | 0.00 | 0.00 | 49 | 1011.4 |
| 20260904181107 | 78 | 211 | 1.0 | 2.0 | 0.00 | 0.00 | 0.00 | 48 | 1011.4 |
| 20260904180610 | 78 | 264 | 0.0 | 2.0 | 0.00 | 0.00 | 0.00 | 48 | 1011.4 |
| 20260904180110 | 79 | 224 | 0.0 | 3.0 | 0.00 | 0.00 | 0.00 | 47 | 1011.4 |
| 20260904175610 | 79 | 229 | 1.0 | 3.0 | 0.00 | 0.00 | 0.00 | 47 | 1011.4 |